Weather History for Corona, CA

Change the Weather History Date:

Wednesday, October 16, 2013

  Actual Average (KONT) Record (KONT)
Temperature  
Mean Temperature 68 °F 68 °F  
Max Temperature 88 °F 81 °F 98 °F (2009)
Min Temperature 47 °F 55 °F 51 °F (1998)
Degree Days  
Heating Degree Days 0 1  
Month to date heating degree days 11  
Since 1 July heating degree days 14  
Cooling Degree Days 3 4  
Month to date cooling degree days 86  
Year to date cooling degree days 1637  
Growing Degree Days 18 (Base 50)    
Moisture  
Dew Point 26 °F    
Average Humidity 22    
Maximum Humidity 61    
Minimum Humidity 8    
Precipitation  
Precipitation 0.00 in 0.03 in 0.01 in (2004)
Month to date precipitation 0.22  
Year to date precipitation 11.09  
Since 1 July precipitation 0.71  
Snow  
Snow 0.00 in - - ()
Month to date snowfall  
Year to date snowfall  
Since 1 July snowfall  
Snow Depth -    
Sea Level Pressure  
Sea Level Pressure 30.01 in    
Wind  
Wind Speed 7 mph (SE)    
Max Wind Speed 15 mph    
Max Gust Speed 23 mph    
Visibility 10 miles    
Events      
T = Trace of Precipitation, MM = Missing Value Source: NWS Daily Summary

Daily Weather History Graph

Daily Weather History Graph

Search for Another Location

Airport:

Trip Planner

Search our weather history database for the weather conditions in past years. The results will help you decide how hot, cold, wet, or windy it might be!

Date:

Astronomy

Oct. 16, 2013 Rise Set
Actual Time 6:56 AM PDT 6:14 PM PDT
Civil Twilight 6:31 AM PDT 6:39 PM PDT
Nautical Twilight 6:02 AM PDT 7:08 PM PDT
Astronomical Twilight 5:33 AM PDT 7:37 PM PDT
Moon 4:52 PM PDT (10/16) 4:35 AM PDT (10/16)
Length of Visible Light 12h 08m
Length of Day
11h 18m
Waxing Gibbous, 94% of the Moon is Illuminated
Oct 16
Waxing Gibbous
Oct 18
Full
Oct 26
Last Quarter
Nov 3
New
Nov 9
First Quarter

Hourly Weather History & Observations

Time (PDT) Temp. Dew Point Humidity Pressure Visibility Wind Dir Wind Speed Gust Speed Precip Events Conditions
12:56 AM 61.0 °F 30.0 °F 31% 29.99 in 10.0 mi SE 5.8 mph - N/A   Clear
1:56 AM 59.9 °F 30.0 °F 32% 29.99 in 10.0 mi ESE 9.2 mph - N/A   Clear
2:56 AM 55.9 °F 32.0 °F 40% 29.99 in 10.0 mi ESE 6.9 mph - N/A   Clear
3:56 AM 61.9 °F 29.1 °F 29% 29.99 in 10.0 mi SE 8.1 mph - N/A   Clear
4:56 AM 64.9 °F 27.1 °F 24% 30.01 in 10.0 mi SSE 6.9 mph - N/A   Clear
5:56 AM 64.9 °F 26.1 °F 23% 30.02 in 10.0 mi SE 9.2 mph - N/A   Clear
6:56 AM 64.9 °F 26.1 °F 23% 30.04 in 10.0 mi SE 8.1 mph - N/A   Clear
7:56 AM 70.0 °F 23.0 °F 17% 30.05 in 10.0 mi SE 15.0 mph 23.0 mph N/A   Clear
8:56 AM 73.9 °F 23.0 °F 15% 30.07 in 10.0 mi SE 12.7 mph 19.6 mph N/A   Clear
9:56 AM 79.0 °F 22.1 °F 12% 30.08 in 10.0 mi ESE 12.7 mph 19.6 mph N/A   Clear
10:56 AM 81.9 °F 19.0 °F 10% 30.07 in 10.0 mi East 11.5 mph 17.3 mph N/A   Clear
11:56 AM 82.9 °F 22.1 °F 11% 30.05 in 10.0 mi SSE 5.8 mph 17.3 mph N/A   Clear
12:56 PM 84.9 °F 21.0 °F 10% 30.02 in 10.0 mi SE 9.2 mph 16.1 mph N/A   Clear
1:56 PM 86.0 °F 20.1 °F 9% 29.99 in 10.0 mi Variable 6.9 mph - N/A   Clear
2:56 PM 84.9 °F 18.1 °F 8% 29.98 in 10.0 mi Variable 3.5 mph - N/A   Clear
3:56 PM 86.0 °F 22.1 °F 10% 29.97 in 10.0 mi NNW 6.9 mph - N/A   Clear
4:56 PM 84.9 °F 23.0 °F 10% 29.96 in 10.0 mi WNW 5.8 mph - N/A   Clear
5:56 PM 79.9 °F 27.1 °F 14% 29.96 in 10.0 mi West 6.9 mph - N/A   Clear
6:56 PM 74.8 °F 27.1 °F 17% 29.98 in 10.0 mi WNW 5.8 mph - N/A   Clear
7:56 PM 72.9 °F 26.1 °F 18% 30.00 in 10.0 mi WNW 8.1 mph - N/A   Clear
8:56 PM 61.9 °F 29.1 °F 29% 30.02 in 10.0 mi Calm Calm - N/A   Clear
9:56 PM 52.9 °F 27.1 °F 37% 30.03 in 10.0 mi Calm Calm - N/A   Clear
10:56 PM 50.0 °F 30.0 °F 46% 30.03 in 10.0 mi Calm Calm - N/A   Clear
11:56 PM 47.8 °F 34.9 °F 61% 30.02 in 10.0 mi Calm Calm - N/A   Clear